Regional Weather Roundup
Issued by NWS

Home | Current Version | Previous Version | Graphics & Text | Print | Product List | Glossary On
Versions: 1 2 3 4 5 6 7 8 9 10 11 12 13 14 15 16 17 18 19 20 21 22 23 24 25 26 27 28 29 30 31 32 33 34 35 36 37 38 39 40 41 42 43 44 45 46 47 48 49 50
000
ASUS43 KIND 070359
RWRIN

WEATHER ROUNDUP FOR INDIANA
NATIONAL WEATHER SERVICE INDIANAPOLIS IN
1200 AM EDT THU MAY 07 2015

NOTE: "FAIR" INDICATES FEW OR NO CLOUDS BELOW 12,000 FEET WITH NO
SIGNIFICANT WEATHER AND/OR OBSTRUCTIONS TO VISIBILITY.

* - STATION DOES NOT REPORT WEATHER SUCH AS PRECIPITATION OR FOG.

+ - STATION NOT QUALITY CONTROLLED BY THE NATIONAL WEATHER SERVICE.
    USE DATA WITH CAUTION...ESPECIALLY DEWPOINT AND RELATIVE
    HUMIDITY OBSERVATIONS.

INZ001>003-010>013-019-020-070500-
NORTHWEST INDIANA

CITY           SKY/WX    TMP DP  RH WIND       PRES   REMARKS

$$

LMZ046-743>745-070500-
SOUTHERN LAKE MICHIGAN

STATION/POSITION TIME  TEMP    WIND        PRES    WAVE
                       AIR SEA DIR/SP/G            HT
                 (UTC) (F)     (DEG/KT/KT) (MB)    (FT)
BURNS HARBOR     0300   54     260/  4/  5 1019.0S
MICHIGAN CITY    0300   71     100/  5/  6   N/A
5NW MICH CITY    0300   58 53  110/  4/  4   N/A     1

$$

INZ004-005-014>016-021>024-070500-
NORTH CENTRAL INDIANA

CITY           SKY/WX    TMP DP  RH WIND       PRES   REMARKS
GOSHEN         CLEAR     65  60  84 SE9       30.12F HAZE
SOUTH BEND     FAIR      70  61  73 SE12      30.11S

$$

INZ006>009-017-018-025>027-070500-
NORTHEAST INDIANA

CITY           SKY/WX    TMP DP  RH WIND       PRES   REMARKS
ANGOLA *+      CLEAR     63  59  88 SE9       30.16S
FORT WAYNE     PTCLDY    63  59  87 E8        30.15R

$$

INZ028-029-035-036-043>045-051>053-070500-
WEST CENTRAL INDIANA

CITY           SKY/WX    TMP DP  RH WIND       PRES   REMARKS
GREENCASTLE +  PTCLDY    68  48  49 CALM      30.10S
LAFAYETTE      CLEAR     64  54  69 CALM      30.08S
TERRE HAUTE    CLEAR     66  54  65 CALM      30.09R

$$

INZ030>032-037>040-046>048-054>057-064-065-070500-
CENTRAL INDIANA

CITY           SKY/WX    TMP DP  RH WIND       PRES   REMARKS
GREENWOOD *+   CLEAR     68  52  56 SE3       30.11F
INDIANAPOLIS   CLEAR     71  52  50 SE5       30.09S
-EAGLE CREEK   CLEAR     65  56  72 CALM      30.10S
KOKOMO *+      CLEAR     66  57  72 SE8       30.11S
MT COMFORT *+  CLEAR     64  45  48 SE3       30.12S
SHELBYVILLE    CLEAR     66  53  63 SE5       30.11S

$$

INZ033-034-041-042-049-050-058-059-070500-
EAST CENTRAL INDIANA

CITY           SKY/WX    TMP DP  RH WIND       PRES   REMARKS
MUNCIE         CLEAR     66  58  75 SE3       30.13S

$$

INZ060-061-067>069-081>083-085>088-070500-
SOUTHWEST INDIANA

CITY           SKY/WX    TMP DP  RH WIND       PRES   REMARKS
EVANSVILLE     CLEAR     67  59  75 CALM      30.08S
HUNTINGBURG *+ PTCLDY    66  55  68 SE3       30.09F

$$

INZ062-063-066-070>080-084-089>092-070500-
SOUTH CENTRAL AND SOUTHEAST INDIANA

CITY           SKY/WX    TMP DP  RH WIND       PRES   REMARKS
BLOOMINGTON    CLEAR     63  55  75 CALM      30.10F
MADISON *+     CLEAR     63  55  77 CALM      30.13F
SEYMOUR +      CLEAR     64  57  77 CALM      30.11S

$$



USA.gov is the U.S. government's official web portal to all federal, state and local government web resources and services.